Regional Weather Roundup
Issued by NWS

Home | Current Version | Previous Version | Text Only | Print | Product List | Glossary Off
Versions: 1 2 3 4 5 6 7 8 9 10 11 12 13 14 15 16 17 18 19 20 21 22 23 24 25 26 27 28 29 30 31 32 33 34 35 36 37 38 39 40 41 42 43 44 45 46 47 48 49 50

000
ASUS43 KFSD 190502
RWRSD

WEATHER ROUNDUP FOR SOUTH DAKOTA
NATIONAL WEATHER SERVICE SIOUX FALLS SD
1200 AM CDT THU OCT 19 2017

NOTE: "FAIR" INDICATES FEW OR NO CLOUDS BELOW 12,000 FEET WITH NO
SIGNIFICANT WEATHER AND/OR OBSTRUCTIONS TO VISIBILITY.


SDZ001>005-009-010-012>017-190600-
NORTHWEST AND NORTH CENTRAL SOUTH DAKOTA

CITY           SKY/WX    TMP DP  RH WIND       PRES   REMARKS
BUFFALO          N/A     47  25  42 SE8       29.83F
FAITH            N/A     45  28  51 S17       29.92F
MOBRIDGE       CLOUDY    43  37  79 SE7       29.94F
$$

SDZ012>016-024>037-041>051-057-063-072>074-190600-
SOUTHWEST AND SOUTH CENTRAL SOUTH DAKOTA

CITY           SKY/WX    TMP DP  RH WIND       PRES   REMARKS
RAPID CTY ARPT CLOUDY    47  29  49 SE7       29.96F
PIERRE         CLOUDY    44  32  62 S9        29.98F
CUSTER         CLOUDY    54  22  28 SW8       30.04F
ELLSWORTH AFB  CLOUDY    53  29  40 S14       29.94F
PHILIP         CLOUDY    50  33  52 W3        29.96F
PINE RIDGE     CLOUDY    58  30  34 S20G28    30.01F
SPEARFISH      FAIR      64  21  19 SW18G25   29.92F
WINNER         FAIR      50  33  52 SE12      30.01F
$$

SDZ004>011-016>023-039-040-190600-
NORTHEAST SOUTH DAKOTA

CITY           SKY/WX    TMP DP  RH WIND       PRES   REMARKS
ABERDEEN       CLOUDY    36  29  75 S5        30.00F
WATERTOWN      CLOUDY    40  33  76 S5        30.03S
BROOKINGS      CLOUDY    44  30  57 E5        30.06S
SISSETON         N/A     49  30  48 SW9       29.98F
$$

SDZ017-020-022-023-036>040-048>070-190600-
SOUTHEAST SOUTH DAKOTA

CITY           SKY/WX    TMP DP  RH WIND       PRES   REMARKS
SIOUX FALLS    CLOUDY    42  37  82 NE3       30.06S
HURON          PTCLDY    40  34  79 CALM      30.04S
MITCHELL       PTCLDY    42  33  70 SE3       30.06R
YANKTON        CLOUDY    46  35  65 CALM      30.06S
$$

ABBREVIATIONS USED IN REMARKS
   TC - TEMPERATURE IN CELSIUS
  WCI - WIND CHILL INDEX
   HX - HEAT INDEX
  VSB - VISIBILITY




USA.gov is the U.S. government's official web portal to all federal, state and local government web resources and services.